Home > Weather > Neu-Ulm > Past weeks

Flag for Germany Past Weather in Neu-Ulm, Bavaria, Germany — Yesterday and Last 2 Weeks

Now
77 °F

Scattered clouds.


Feels Like: 79 °F
Forecast: 62 / 77 °F
Wind: 3 mph from East

Location: Laupheim Airport

Current Time: Jul 23, 2016 at 5:23:09 PM

Latest Report: Jul 23, 2016 at 4:20 PM


Visibility: N/A

Pressure: 30.07 "Hg

Humidity: 57%

Dew Point: 61 °F

Location of Neu-UlmLocation

Past Weather in Neu-Ulm — Graph

°F

Neu-Ulm Temperature Yesterday

Maximum temperature yesterday: 77 °F (at 3:20 PM)
Minimum temperature yesterday: 57 °F (at 6:20 AM)
Average temperature yesterday: 66 °F

High & Low Weather Summary for the Past Weeks

 TemperatureHumidityPressure
High88 °F (Jul 10, 5:20 PM)100% (Jul 12, 11:20 PM)30.36 "Hg (Jul 12, 11:20 PM)
Low46 °F (Jul 15, 5:20 AM)28% (Jul 8, 5:20 PM)29.92 "Hg (Jul 10, 6:20 PM)
Average66 °F70%30.11 "Hg
* Reported Jul 8 3:20 PM — Jul 23 3:20 PM, Neu-Ulm, Weather by CustomWeather, © 2016

Note: Actual official high and low records may vary slightly from our data, if they occured in-between our weather recording intervals... More about our weather records

Advertising

Neu-Ulm Weather History for the Previous 24 Hours

Scroll right to see more
 ConditionsComfort  
Time TempWeatherWind HumidityBarometerVisibility
3:20 PM
Sat, Jul 23
75 °FBroken clouds.5 mph61%30.07 "HgN/A
2:20 PM73 °FPartly sunny.5 mph65%30.07 "HgN/A
1:20 PM73 °FBroken clouds.5 mph65%30.09 "HgN/A
12:20 PM72 °FBroken clouds.3 mph73%30.07 "HgN/A
11:20 AM70 °FScattered clouds.8 mph73%30.07 "HgN/A
10:20 AM68 °FPassing clouds.7 mph83%30.07 "HgN/A
9:20 AM66 °FPartly sunny.6 mph83%30.07 "HgN/A
8:20 AM63 °FBroken clouds.3 mph94%30.07 "Hg4 mi
7:20 AM63 °FPartly sunny.5 mph94%30.07 "Hg4 mi
6:20 AM63 °FPassing clouds.3 mph94%30.04 "Hg4 mi
5:20 AM63 °FPassing clouds.1 mph94%30.07 "Hg4 mi
4:20 AM63 °FPartly cloudy.1 mph94%30.04 "Hg5 mi
3:20 AM63 °FPassing clouds.3 mph94%30.04 "Hg5 mi
2:20 AM64 °FPartly cloudy.6 mph94%30.04 "HgN/A
1:20 AM64 °FPartly cloudy.3 mph94%30.07 "HgN/A
12:20 AM64 °FPassing clouds.3 mph94%30.07 "HgN/A
11:20 PM
Fri, Jul 22
66 °FPassing clouds.5 mph94%30.04 "HgN/A
10:20 PM66 °FPartly cloudy.5 mph94%30.04 "HgN/A
9:20 PM66 °FBroken clouds.5 mph94%30.04 "HgN/A
8:20 PM66 °FLight rain. More clouds than sun.5 mph94%30.04 "HgN/A
7:20 PM66 °FLight rain. Partly sunny.6 mph94%30.01 "HgN/A
6:20 PM73 °FLight rain. Broken clouds.3 mph74%30.01 "HgN/A
5:20 PM75 °FPartly sunny.5 mph61%30.01 "HgN/A
Weather by CustomWeather, © 2016

See weather overviewHow to use our weather pages